Change the Weather History Date:

Tuesday, October 8, 2013

  Actual Average (KTUL) Record (KTUL)
Temperature  
Mean Temperature 60 °F 64 °F  
Max Temperature 75 °F 75 °F 97 °F (1979)
Min Temperature 46 °F 53 °F 30 °F (2000)
Degree Days  
Heating Degree Days 4 4  
Month to date heating degree days 25  
Since 1 July heating degree days 49  
Cooling Degree Days 0 3  
Month to date cooling degree days 28  
Year to date cooling degree days 1993  
Growing Degree Days 10 (Base 50)    
Moisture  
Dew Point 48 °F    
Average Humidity 67    
Maximum Humidity 97    
Minimum Humidity 34    
Precipitation  
Precipitation 0.01 in 0.12 in 4.71 in (1936)
Month to date precipitation 0.99  
Year to date precipitation 32.73  
Sea Level Pressure  
Sea Level Pressure 30.11 in    
Wind  
Wind Speed 3 mph (SSE)    
Max Wind Speed 10 mph    
Max Gust Speed 17 mph    
Visibility 10 miles    
Events      
T = Trace of Precipitation, MM = Missing Value Source: NWS Daily Summary

Daily Weather History Graph

Daily Weather History Graph

Search for Another Location

Airport or City:

Trip Planner

Search our weather history database for the weather conditions in past years. The results will help you decide how hot, cold, wet, or windy it might be!

Date:

Astronomy

Oct. 08, 2013 Rise Set
Actual Time 7:24 AM CDT 6:57 PM CDT
Civil Twilight 6:59 AM CDT 7:22 PM CDT
Nautical Twilight 6:29 AM CDT 7:52 PM CDT
Astronomical Twilight 5:59 AM CDT 8:22 PM CDT
Moon 11:13 AM CDT (10/8) 9:41 PM CDT (10/8)
Length of Visible Light 12h 23m
Length of Day
11h 32m
Waxing Crescent, 16% of the Moon is Illuminated
Oct 8
Waxing Crescent
Oct 11
First Quarter
Oct 18
Full
Oct 26
Last Quarter
Nov 3
New

Hourly Weather History & Observations

Time (CDT) Temp. Dew Point Humidity Pressure Visibility Wind Dir Wind Speed Gust Speed Precip Events Conditions
12:53 AM 48.9 °F 46.9 °F 93% 30.14 in 10.0 mi Calm Calm - N/A   Clear
1:53 AM 48.0 °F 46.9 °F 96% 30.15 in 10.0 mi Calm Calm - N/A   Clear
2:53 AM 46.9 °F 46.0 °F 97% 30.15 in 10.0 mi Calm Calm - N/A   Clear
3:53 AM 46.9 °F 46.0 °F 97% 30.14 in 10.0 mi Calm Calm - N/A   Clear
4:53 AM 46.0 °F 45.0 °F 96% 30.14 in 10.0 mi Calm Calm - N/A   Clear
5:53 AM 46.9 °F 45.0 °F 93% 30.15 in 8.0 mi Calm Calm - N/A   Clear
6:53 AM 46.9 °F 46.0 °F 97% 30.14 in 6.0 mi Calm Calm - 0.01 in   Clear
7:53 AM 46.9 °F 46.0 °F 97% 30.14 in 6.0 mi Calm Calm - N/A   Clear
8:53 AM 55.0 °F 50.0 °F 83% 30.15 in - South 4.6 mph - N/A   Clear
9:53 AM 61.0 °F 51.1 °F 70% 30.17 in 10.0 mi SSE 5.8 mph - N/A   Clear
10:53 AM 68.0 °F 48.9 °F 50% 30.17 in 10.0 mi SSE 8.1 mph 17.3 mph N/A   Clear
11:53 AM 70.0 °F 50.0 °F 49% 30.16 in 10.0 mi SSE 10.4 mph - N/A   Clear
12:53 PM 73.0 °F 51.1 °F 46% 30.13 in 10.0 mi South 9.2 mph - N/A   Clear
1:53 PM 73.9 °F 48.0 °F 40% 30.11 in 10.0 mi SSE 9.2 mph - N/A   Clear
2:53 PM 75.0 °F 48.9 °F 40% 30.08 in 10.0 mi SSE 6.9 mph - N/A   Clear
3:53 PM 75.9 °F 46.9 °F 36% 30.06 in 10.0 mi SSE 9.2 mph 16.1 mph N/A   Clear
4:53 PM 75.0 °F 45.0 °F 34% 30.05 in 10.0 mi SE 10.4 mph - N/A   Clear
5:53 PM 73.9 °F 48.0 °F 40% 30.05 in 10.0 mi SSE 6.9 mph - N/A   Clear
6:53 PM 71.1 °F 48.0 °F 44% 30.05 in 10.0 mi SSE 4.6 mph - N/A   Clear
7:53 PM 64.9 °F 50.0 °F 58% 30.06 in 10.0 mi SE 5.8 mph - N/A   Clear
8:53 PM 64.9 °F 48.9 °F 56% 30.06 in 10.0 mi SSE 4.6 mph - N/A   Clear
9:53 PM 63.0 °F 48.9 °F 60% 30.06 in 10.0 mi SE 3.5 mph - N/A   Clear
10:53 PM 61.0 °F 48.0 °F 62% 30.06 in 10.0 mi SSE 3.5 mph - N/A   Clear
11:53 PM 57.0 °F 50.0 °F 77% 30.06 in 10.0 mi Calm Calm - N/A   Clear